TimeCST,TemperatureF,Dew PointF,Humidity,Sea Level PressureIn,VisibilityMPH,Wind Direction,Wind SpeedMPH,Gust SpeedMPH,PrecipitationIn,Events,Conditions,WindDirDegrees,DateUTC
12:56 AM,43.0,32.0,65,30.29,10.0,North,11.5,17.3,N/A,,Clear,360,2013-01-18 06:56:00
1:56 AM,42.1,32.0,67,30.31,10.0,North,6.9,-,N/A,,Clear,10,2013-01-18 07:56:00
2:56 AM,41.0,32.0,70,30.33,10.0,North,6.9,-,N/A,,Clear,360,2013-01-18 08:56:00
3:56 AM,39.0,32.0,76,30.35,10.0,NNW,3.5,-,N/A,,Clear,330,2013-01-18 09:56:00
4:56 AM,37.9,30.9,76,30.38,10.0,NNW,8.1,-,N/A,,Clear,330,2013-01-18 10:56:00
5:56 AM,37.9,30.9,76,30.40,10.0,NNW,8.1,-,N/A,,Clear,330,2013-01-18 11:56:00
6:56 AM,37.0,30.9,79,30.43,7.0,NNW,11.5,-,N/A,,Clear,340,2013-01-18 12:56:00
7:56 AM,39.9,32.0,73,30.45,8.0,North,12.7,-,N/A,,Partly Cloudy,360,2013-01-18 13:56:00
8:56 AM,44.1,30.9,60,30.47,10.0,North,11.5,16.1,N/A,,Partly Cloudy,10,2013-01-18 14:56:00
9:56 AM,48.9,32.0,52,30.47,10.0,NNE,8.1,16.1,N/A,,Partly Cloudy,30,2013-01-18 15:56:00
10:56 AM,53.1,33.1,47,30.46,10.0,Variable,5.8,-,N/A,,Partly Cloudy,0,2013-01-18 16:56:00
11:56 AM,55.9,33.1,42,30.42,10.0,ENE,8.1,-,N/A,,Partly Cloudy,60,2013-01-18 17:56:00
12:56 PM,59.0,30.9,35,30.39,10.0,NNE,9.2,-,N/A,,Partly Cloudy,30,2013-01-18 18:56:00
1:56 PM,60.1,30.9,33,30.36,10.0,ENE,4.6,-,N/A,,Partly Cloudy,60,2013-01-18 19:56:00
2:56 PM,60.1,30.9,33,30.36,10.0,Variable,6.9,-,N/A,,Clear,0,2013-01-18 20:56:00
3:56 PM,60.1,32.0,35,30.35,10.0,Variable,5.8,-,N/A,,Clear,0,2013-01-18 21:56:00
4:56 PM,55.9,33.1,42,30.37,10.0,Calm,Calm,-,N/A,,Clear,0,2013-01-18 22:56:00
5:56 PM,51.1,34.0,52,30.38,10.0,NNE,3.5,-,N/A,,Clear,30,2013-01-18 23:56:00
6:56 PM,46.0,34.0,63,30.38,10.0,NNE,3.5,-,N/A,,Clear,20,2013-01-19 00:56:00
7:56 PM,39.9,34.0,79,30.39,10.0,NNE,3.5,-,N/A,,Clear,30,2013-01-19 01:56:00
8:56 PM,39.0,33.1,79,30.40,10.0,Calm,Calm,-,N/A,,Clear,0,2013-01-19 02:56:00
9:56 PM,37.0,32.0,82,30.37,10.0,NNE,3.5,-,N/A,,Clear,20,2013-01-19 03:56:00
10:56 PM,37.0,33.1,86,30.36,10.0,Calm,Calm,-,N/A,,Clear,0,2013-01-19 04:56:00
11:56 PM,37.0,32.0,82,30.35,10.0,Calm,Calm,-,N/A,,Clear,0,2013-01-19 05:56:00